FNA77A BIEG-BIRK

Flight info

Callsign FNA77A
Flight time N/A
Altitude 32000
Route VAD1A BRUSI DCT TIBRA
Aircraft BE20/M-SDFGRWY/LB1

Departure

Time N/A
Airport Egilsstaðir Airport (BIEG)

Arrival

Time 2026-05-07 20:50
Airport Reykjavík Domestic Airport (BIRK)
Time Latitude Longitude Altitude Speed Heading
2026-05-07 20:33 64.42949 -20.12497 30128 ft 271 kts 256°
2026-05-07 20:33 64.42271 -20.16567 30129 ft 271 kts 256°
2026-05-07 20:34 64.41589 -20.20647 30128 ft 272 kts 256°
2026-05-07 20:34 64.40907 -20.24721 30128 ft 272 kts 256°
2026-05-07 20:34 64.40223 -20.28803 30128 ft 272 kts 256°
2026-05-07 20:34 64.39537 -20.32877 30129 ft 272 kts 256°
2026-05-07 20:35 64.38851 -20.36953 30102 ft 272 kts 256°
2026-05-07 20:35 64.38163 -20.41021 30118 ft 272 kts 256°
2026-05-07 20:35 64.37482 -20.45044 30126 ft 272 kts 256°
2026-05-07 20:35 64.36791 -20.49119 30129 ft 272 kts 256°
2026-05-07 20:36 64.36100 -20.53192 30135 ft 273 kts 256°
2026-05-07 20:36 64.35404 -20.57278 30124 ft 273 kts 255°
2026-05-07 20:36 64.34708 -20.61357 30129 ft 273 kts 255°
2026-05-07 20:36 64.34010 -20.65434 30126 ft 273 kts 255°
2026-05-07 20:37 64.33311 -20.69513 30126 ft 273 kts 255°
2026-05-07 20:37 64.32612 -20.73580 30132 ft 273 kts 255°
2026-05-07 20:37 64.31912 -20.77644 30136 ft 273 kts 255°
2026-05-07 20:37 64.31209 -20.81724 30137 ft 273 kts 255°
2026-05-07 20:38 64.30505 -20.85797 30134 ft 273 kts 255°
2026-05-07 20:38 64.29800 -20.89860 30052 ft 273 kts 255°
2026-05-07 20:38 64.28866 -20.93675 29804 ft 279 kts 234°
2026-05-07 20:38 64.27476 -20.96803 29571 ft 279 kts 229°
2026-05-07 20:39 64.26075 -20.99876 29339 ft 278 kts 229°
2026-05-07 20:39 64.24677 -21.02947 29105 ft 278 kts 229°
2026-05-07 20:39 64.23282 -21.06008 28812 ft 278 kts 229°
2026-05-07 20:39 64.21881 -21.09078 28379 ft 278 kts 229°
2026-05-07 20:40 64.20491 -21.12122 27682 ft 281 kts 229°
2026-05-07 20:40 64.19068 -21.15231 27009 ft 283 kts 228°
2026-05-07 20:40 64.17635 -21.18354 26348 ft 284 kts 228°
2026-05-07 20:40 64.16209 -21.21457 25691 ft 286 kts 228°
2026-05-07 20:41 64.14765 -21.24595 25035 ft 286 kts 228°
2026-05-07 20:41 64.13323 -21.27720 24391 ft 285 kts 227°
2026-05-07 20:41 64.11891 -21.30821 23754 ft 283 kts 227°
2026-05-07 20:41 64.10478 -21.33875 23009 ft 281 kts 227°
2026-05-07 20:42 64.09061 -21.36934 22274 ft 279 kts 227°
2026-05-07 20:42 64.07651 -21.39974 21552 ft 277 kts 227°
2026-05-07 20:42 64.06253 -21.42984 20848 ft 275 kts 227°
2026-05-07 20:42 64.04869 -21.45960 20170 ft 272 kts 227°
2026-05-07 20:43 64.03477 -21.48956 19153 ft 279 kts 226°
2026-05-07 20:43 64.02053 -21.52010 18076 ft 284 kts 227°
2026-05-07 20:43 64.00605 -21.55114 16905 ft 287 kts 227°
2026-05-07 20:43 63.99140 -21.58249 15711 ft 292 kts 226°
2026-05-07 20:44 63.97651 -21.61430 14546 ft 295 kts 226°
2026-05-07 20:44 63.96153 -21.64621 13330 ft 295 kts 226°
2026-05-07 20:44 63.94816 -21.68055 12093 ft 285 kts 245°
2026-05-07 20:44 63.94293 -21.72285 10879 ft 276 kts 268°
2026-05-07 20:45 63.94183 -21.76668 9470 ft 278 kts 272°
2026-05-07 20:45 63.94134 -21.81025 8048 ft 279 kts 272°
2026-05-07 20:45 63.94147 -21.85372 6809 ft 267 kts 284°
2026-05-07 20:45 63.94965 -21.88845 6168 ft 238 kts 320°
2026-05-07 20:46 63.96319 -21.90582 5653 ft 216 kts 348°
2026-05-07 20:46 63.97736 -21.90943 5284 ft 197 kts 356°
2026-05-07 20:46 63.99068 -21.91212 4940 ft 188 kts 356°
2026-05-07 20:46 64.00345 -21.91476 4582 ft 181 kts 356°
2026-05-07 20:47 64.01580 -21.91730 4226 ft 176 kts 356°
2026-05-07 20:47 64.02788 -21.91977 3876 ft 173 kts 356°
2026-05-07 20:47 64.03978 -21.92220 3545 ft 170 kts 357°
2026-05-07 20:47 64.05144 -21.92458 3226 ft 167 kts 357°
2026-05-07 20:48 64.06300 -21.92727 2721 ft 169 kts 356°
2026-05-07 20:48 64.07307 -21.92801 2270 ft 118 kts 360°
2026-05-07 20:48 64.08070 -21.92827 1710 ft 105 kts
2026-05-07 20:48 64.08792 -21.92921 1269 ft 101 kts 355°
2026-05-07 20:49 64.09502 -21.93148 965 ft 105 kts 356°
2026-05-07 20:49 64.10238 -21.93271 593 ft 107 kts
2026-05-07 20:49 64.10963 -21.93373 368 ft 101 kts 356°
2026-05-07 20:49 64.11642 -21.93519 211 ft 98 kts 356°
2026-05-07 20:50 64.12321 -21.93648 56 ft 93 kts 358°
2026-05-07 20:50 64.12861 -21.93737 43 ft 59 kts 357°
2026-05-07 20:50 64.13077 -21.93779 45 ft 17 kts
2026-05-07 20:50 64.13080 -21.93584 44 ft 18 kts 141°
2026-05-07 20:51 64.12943 -21.93571 43 ft 22 kts 164°
2026-05-07 20:51 64.12920 -21.93335 43 ft 16 kts 97°
2026-05-07 20:51 64.12886 -21.93271 43 ft 0 kts 219°